Weather History for KMMK - February, 2013

Change the Weather History Date:

Friday, February 8, 2013

  Actual Average (KBDR) Record (KBDR)
Temperature  
Mean Temperature 26 °F 31 °F  
Max Temperature 32 °F 38 °F 57 °F (1965)
Min Temperature 21 °F 24 °F -5 °F (1963)
Degree Days  
Heating Degree Days 38 34  
Month to date heating degree days 273  
Since 1 July heating degree days 3249  
Cooling Degree Days 0 0  
Month to date cooling degree days 0  
Year to date cooling degree days 0  
Moisture  
Dew Point 24 °F    
Average Humidity 84    
Maximum Humidity 93    
Minimum Humidity 47    
Precipitation  
Precipitation 1.15 in 0.08 in 1.73 in (2013)
Month to date precipitation 0.72  
Year to date precipitation 3.82  
Snow  
Snow 0.00 in 0.30 in 18.50 in (2013)
Month to date snowfall 2.2  
Since 1 July snowfall 15.7  
Snow Depth -    
Sea Level Pressure  
Sea Level Pressure 29.96 in    
Wind  
Wind Speed 8 mph (NNE)    
Max Wind Speed 22 mph    
Max Gust Speed 39 mph    
Visibility 2 miles    
Events Fog , Snow    
T = Trace of Precipitation, MM = Missing Value Source: NWS Daily Summary

Daily Weather History Graph

Daily Weather History Graph

Search for Another Location

Airport or City:

Trip Planner

Search our weather history database for the weather conditions in past years. The results will help you decide how hot, cold, wet, or windy it might be!

Date:

Astronomy

Feb. 08, 2013 Rise Set
Actual Time 6:55 AM EST 5:16 PM EST
Civil Twilight 6:26 AM EST 5:45 PM EST
Nautical Twilight 5:53 AM EST 6:18 PM EST
Astronomical Twilight 5:21 AM EST 6:50 PM EST
Moon 5:22 AM EST (2/8) 3:46 PM EST (2/8)
Length of Visible Light 11h 19m
Length of Day
10h 21m
Waning Crescent, 3% of the Moon is Illuminated
Feb 8
Waning Crescent
Feb 10
New
Feb 17
First Quarter
Feb 25
Full
Mar 4
Last Quarter

Hourly Weather History & Observations

Time (EST) Temp. Windchill Dew Point Humidity Pressure Visibility Wind Dir Wind Speed Gust Speed Precip Events Conditions
12:53 AM 28.0 °F 24.2 °F 15.1 °F 58% 30.39 in 10.0 mi Variable 3.5 mph - N/A   Overcast
1:53 AM 28.0 °F 21.7 °F 10.0 °F 47% 30.37 in 10.0 mi NE 5.8 mph - N/A   Overcast
2:53 AM 28.0 °F 22.8 °F 12.9 °F 53% 30.35 in 10.0 mi ENE 4.6 mph - N/A   Overcast
3:42 AM 28.4 °F 21.2 °F 15.8 °F 59% 30.32 in 10.0 mi ENE 6.9 mph - N/A   Overcast
3:53 AM 28.0 °F 21.7 °F 16.0 °F 61% 30.32 in 10.0 mi NE 5.8 mph - N/A   Overcast
4:53 AM 28.0 °F 22.8 °F 18.0 °F 66% 30.29 in 10.0 mi NNE 4.6 mph - N/A   Overcast
5:53 AM 28.0 °F 21.7 °F 19.0 °F 69% 30.27 in 10.0 mi North 5.8 mph - N/A   Overcast
6:53 AM 28.9 °F 21.9 °F 19.9 °F 69% 30.24 in 10.0 mi North 6.9 mph - N/A   Overcast
7:53 AM 28.9 °F 21.9 °F 21.9 °F 75% 30.22 in 10.0 mi NNE 6.9 mph - N/A   Overcast
8:14 AM 30.2 °F 23.4 °F 23.0 °F 75% 30.20 in 1.8 mi NNE 6.9 mph - 0.00 in Snow Light Snow
8:30 AM 28.4 °F 22.2 °F 24.8 °F 86% 30.20 in 0.8 mi North 5.8 mph - 0.00 in Snow Light Snow
8:53 AM 30.0 °F 24.1 °F 26.1 °F 85% 30.19 in 1.0 mi NNE 5.8 mph - 0.01 in Snow Light Snow
9:24 AM 30.2 °F 23.4 °F 26.6 °F 86% 30.17 in 0.8 mi NNE 6.9 mph - 0.00 in Snow Light Snow
9:51 AM 30.2 °F 24.3 °F 26.6 °F 86% 30.16 in 1.0 mi North 5.8 mph - 0.01 in Snow Light Snow
9:53 AM 30.9 °F 24.3 °F 27.0 °F 85% 30.16 in 1.0 mi NE 6.9 mph - 0.02 in Snow Light Snow
10:53 AM 30.9 °F 24.3 °F 27.0 °F 85% 30.12 in 1.0 mi NNE 6.9 mph 18.4 mph 0.01 in Snow Light Snow
11:06 AM 30.2 °F 21.3 °F 26.6 °F 86% 30.10 in 0.8 mi NE 10.4 mph - 0.01 in Snow Light Snow
11:36 AM 30.2 °F 21.3 °F 28.4 °F 93% 30.06 in 0.8 mi NNE 10.4 mph 16.1 mph 0.03 in Snow Light Snow
11:53 AM 30.9 °F 24.3 °F 28.0 °F 89% 30.05 in 0.8 mi NNE 6.9 mph - 0.05 in Snow Light Snow
12:28 PM 30.2 °F 22.6 °F 28.4 °F 93% 30.01 in 0.8 mi North 8.1 mph - 0.03 in Snow Light Snow
12:49 PM 30.2 °F 22.6 °F 28.4 °F 93% 29.99 in 0.5 mi NNE 8.1 mph - 0.05 in Fog , Snow Snow
12:53 PM 30.9 °F 25.2 °F 28.0 °F 89% 30.00 in 0.5 mi NNE 5.8 mph - 0.05 in Fog , Snow Snow
1:23 PM 30.2 °F 21.9 °F 28.4 °F 93% 29.95 in 0.2 mi NNE 9.2 mph - 0.03 in Fog , Snow Snow
1:30 PM 30.2 °F 22.6 °F 28.4 °F 93% 29.95 in 0.5 mi North 8.1 mph - 0.04 in Fog , Snow Snow
1:53 PM 30.9 °F 22.8 °F 28.9 °F 92% 29.93 in 0.8 mi North 9.2 mph 17.3 mph 0.05 in Snow Light Snow
2:21 PM 32.0 °F 24.2 °F 28.4 °F 87% 29.90 in 0.5 mi NNE 9.2 mph 20.7 mph 0.03 in Fog , Snow Snow
2:28 PM 32.0 °F 23.6 °F 28.4 °F 87% 29.89 in 0.2 mi NNE 10.4 mph 20.7 mph 0.04 in Fog , Snow Snow
2:43 PM 32.0 °F 24.8 °F 28.4 °F 87% 29.87 in 0.2 mi North 8.1 mph - 0.05 in Fog , Snow Heavy Snow
2:53 PM 32.0 °F 22.5 °F 30.0 °F 92% 29.87 in 0.2 mi NNE 12.7 mph 20.7 mph 0.07 in Fog , Snow Heavy Snow
3:10 PM 32.0 °F 23.0 °F 30.2 °F 93% 29.85 in 0.5 mi NNE 11.5 mph 18.4 mph 0.02 in Fog , Snow Snow
3:53 PM 32.0 °F 21.6 °F 30.0 °F 92% 29.81 in 0.5 mi NNE 15.0 mph 21.9 mph 0.06 in Fog , Snow Snow
4:33 PM 30.2 °F 20.2 °F 28.4 °F 93% 29.77 in 0.2 mi North 12.7 mph 23.0 mph 0.02 in Fog , Snow Snow
4:53 PM 30.0 °F 20.0 °F 27.0 °F 88% 29.77 in 0.2 mi North 12.7 mph 23.0 mph 0.04 in Fog , Snow Heavy Snow
5:01 PM 30.2 °F 19.8 °F 26.6 °F 86% 29.76 in 0.2 mi NNE 13.8 mph 21.9 mph 0.00 in Fog , Snow Heavy Snow
5:23 PM 28.4 °F 18.0 °F 26.6 °F 93% 29.75 in 0.5 mi North 12.7 mph 20.7 mph 0.02 in Fog , Snow Snow
5:53 PM 28.0 °F 17.5 °F 26.1 °F 92% 29.75 in 0.5 mi North 12.7 mph 26.5 mph 0.05 in Fog , Snow Snow
6:07 PM 28.4 °F 16.6 °F 26.6 °F 93% 29.73 in 0.5 mi North 16.1 mph 23.0 mph 0.02 in Fog , Snow Snow
6:37 PM 28.4 °F 15.1 °F 24.8 °F 86% 29.70 in 0.2 mi North 20.7 mph 33.4 mph 0.04 in Fog , Snow Heavy Snow
6:53 PM 27.0 °F 14.3 °F 25.0 °F 92% 29.69 in 0.2 mi North 17.3 mph 28.8 mph 0.06 in Fog , Snow Heavy Snow
7:20 PM 26.6 °F 13.1 °F 24.8 °F 93% 29.67 in 0.5 mi North 19.6 mph 32.2 mph 0.03 in Fog , Snow Snow
7:32 PM 26.6 °F 12.4 °F 24.8 °F 93% 29.65 in 0.2 mi North 21.9 mph 39.1 mph 0.04 in Fog , Snow Heavy Snow
7:53 PM 26.1 °F 13.6 °F 24.1 °F 92% 29.64 in 0.2 mi North 16.1 mph 31.1 mph 0.08 in Fog Light Freezing Fog
8:53 PM 26.1 °F 13.1 °F 24.1 °F 92% 29.61 in 0.2 mi North 17.3 mph 31.1 mph 0.13 in Fog Light Freezing Fog
9:53 PM 24.1 °F - 21.0 °F 88% 29.60 in 0.2 mi North - - 0.21 in Fog Light Freezing Fog
10:53 PM 21.9 °F - 19.9 °F 92% 29.62 in 0.2 mi North - - 0.16 in Fog Light Freezing Fog
11:30 PM 21.2 °F - 19.4 °F 93% 29.65 in 0.5 mi North - - 0.08 in Fog Light Freezing Fog
11:53 PM 21.9 °F - 19.0 °F 89% 29.67 in 0.5 mi North - - 0.10 in Fog Light Freezing Fog